Location: Tuebingen alte Sternwarte
(48.5376°N, 9.0555°E)
Time: 02:38:53
(UTC+01:00)

ISS - Visible Passes

Search period start: 22 November 2017 00:00
Search period end: 02 December 2017 00:00
Orbit: 402 x 407 km, 51.6° (Epoch: 22 November)

Date Brightness Start Highest point End Pass type
(mag) Time Alt. Az. Time Alt. Az. Time Alt. Az.
27 Nov -1.1 19:07:15 10° SSW 19:07:52 14° SSW 19:07:52 14° SSW visible
28 Nov -2.0 18:15:34 10° S 18:17:52 19° SE 18:17:52 19° SE visible
29 Nov -1.4 17:24:37 10° SSE 17:25:53 12° SE 17:27:10 10° ESE visible
29 Nov -2.1 18:58:34 10° SW 19:00:26 30° SW 19:00:26 30° SW visible
30 Nov -3.0 18:06:27 10° SW 18:09:30 37° SSE 18:10:16 32° ESE visible
30 Nov -0.4 19:42:39 10° W 19:42:55 12° W 19:42:55 12° W visible
01 Dec -2.2 17:14:36 10° SSW 17:17:15 23° SE 17:19:56 10° E visible
01 Dec -2.9 18:50:11 10° WSW 18:52:42 49° W 18:52:42 49° W visible
